TimeCDT,TemperatureF,Dew PointF,Humidity,Sea Level PressureIn,VisibilityMPH,Wind Direction,Wind SpeedMPH,Gust SpeedMPH,PrecipitationIn,Events,Conditions,WindDirDegrees,DateUTC
12:53 AM,64.9,61.0,87,30.18,10.0,Calm,Calm,-,N/A,,Clear,0,2013-07-30 05:53:00
1:53 AM,64.0,62.1,93,30.18,10.0,Calm,Calm,-,N/A,,Clear,0,2013-07-30 06:53:00
2:53 AM,64.9,62.1,90,30.18,10.0,Calm,Calm,-,N/A,,Clear,0,2013-07-30 07:53:00
3:53 AM,64.9,62.1,90,30.18,10.0,Calm,Calm,-,N/A,,Clear,0,2013-07-30 08:53:00
4:53 AM,64.9,62.1,90,30.19,10.0,Calm,Calm,-,N/A,,Clear,0,2013-07-30 09:53:00
5:53 AM,64.9,62.1,90,30.20,10.0,Calm,Calm,-,N/A,,Clear,0,2013-07-30 10:53:00
6:53 AM,64.9,63.0,93,30.20,10.0,Calm,Calm,-,N/A,,Clear,0,2013-07-30 11:53:00
7:53 AM,68.0,63.0,84,30.20,10.0,East,3.5,-,N/A,,Clear,90,2013-07-30 12:53:00
8:53 AM,71.1,62.1,73,30.19,10.0,SSE,5.8,-,N/A,,Clear,150,2013-07-30 13:53:00
9:53 AM,72.0,62.1,71,30.18,10.0,SE,4.6,-,N/A,,Clear,140,2013-07-30 14:53:00
10:53 AM,73.9,63.0,68,30.18,10.0,ESE,4.6,-,N/A,,Clear,120,2013-07-30 15:53:00
11:53 AM,78.1,64.0,62,30.17,10.0,Variable,3.5,-,N/A,,Mostly Cloudy,0,2013-07-30 16:53:00
12:53 PM,79.0,62.1,56,30.16,10.0,SE,3.5,-,N/A,,Mostly Cloudy,130,2013-07-30 17:53:00
1:53 PM,79.0,64.0,60,30.17,10.0,Calm,Calm,-,N/A,,Scattered Clouds,0,2013-07-30 18:53:00
2:53 PM,77.0,66.0,69,30.15,10.0,SE,5.8,-,0.00,,Mostly Cloudy,140,2013-07-30 19:53:00
3:53 PM,77.0,66.9,71,30.15,10.0,SE,3.5,-,0.00,Rain,Light Rain,140,2013-07-30 20:53:00
4:53 PM,75.0,68.0,79,30.14,10.0,Calm,Calm,-,0.02,Rain,Light Rain,0,2013-07-30 21:53:00
5:53 PM,73.0,69.1,87,30.12,9.0,Calm,Calm,-,0.01,Rain,Light Rain,0,2013-07-30 22:53:00
6:53 PM,72.0,69.1,91,30.13,9.0,NW,3.5,-,0.02,Rain,Light Rain,320,2013-07-30 23:53:00
7:53 PM,71.1,70.0,96,30.11,6.0,East,5.8,-,0.00,,Mostly Cloudy,100,2013-07-31 00:53:00
8:53 PM,71.1,68.0,90,30.12,10.0,ESE,4.6,-,0.00,Rain,Light Rain,120,2013-07-31 01:53:00
9:50 PM,69.8,66.2,88,30.15,3.0,South,5.8,-,0.04,Rain,Light Rain,180,2013-07-31 02:50:00
9:51 PM,69.1,66.9,93,30.14,4.0,South,5.8,-,0.04,Rain,Light Rain,190,2013-07-31 02:51:00
10:01 PM,69.8,66.2,88,30.14,4.0,SSE,8.1,-,0.02,Rain,Rain,150,2013-07-31 03:01:00
10:06 PM,69.8,66.2,88,30.14,4.0,SE,9.2,-,0.02,Rain,Rain,130,2013-07-31 03:06:00
10:53 PM,69.1,66.0,90,30.11,10.0,SE,11.5,-,0.04,,Overcast,140,2013-07-31 03:53:00
11:53 PM,68.0,66.0,93,30.11,10.0,SE,6.9,-,N/A,,Overcast,140,2013-07-31 04:53:00